| time (UTC) | temp F | wind direction | speed MPH | gust MPH | rain 1hr in | rain 24hr in | rain mn in | humidity % | barometer mb |
| 20260510080021 | 57 | 265 | 0.0 | 0.0 | 0.00 | 0.00 | 0.00 | 71 | 1016.4 |
| 20260510074504 | 58 | 265 | 0.0 | 0.0 | 0.00 | 0.00 | 0.00 | 69 | 1016.4 |
| 20260510073100 | 58 | 304 | 0.0 | 0.0 | 0.00 | 0.00 | 0.00 | 68 | 1016.5 |
| 20260510071559 | 59 | 277 | 0.0 | 0.0 | 0.00 | 0.00 | 0.00 | 67 | 1016.4 |
| 20260510070055 | 60 | 266 | 0.0 | 0.0 | 0.00 | 0.00 | 0.00 | 65 | 1016.3 |
| 20260510064601 | 61 | 286 | 0.0 | 0.0 | 0.00 | 0.00 | 0.00 | 64 | 1016.3 |
| 20260510063054 | 62 | 283 | 0.0 | 0.0 | 0.00 | 0.00 | 0.00 | 61 | 1016.3 |
| 20260510061558 | 62 | 271 | 0.0 | 0.0 | 0.00 | 0.00 | 0.00 | 61 | 1016.2 |
| 20260510060052 | 63 | 295 | 0.0 | 0.0 | 0.00 | 0.00 | 0.00 | 60 | 1016.1 |
| 20260510054553 | 63 | 162 | 0.0 | 0.0 | 0.00 | 0.00 | 0.00 | 60 | 1016.1 |
| 20260510053052 | 63 | 1 | 0.0 | 0.0 | 0.00 | 0.00 | 0.00 | 59 | 1016.0 |
| 20260510051601 | 62 | 304 | 0.0 | 0.0 | 0.00 | 0.00 | 0.00 | 60 | 1015.8 |
| 20260510050053 | 63 | 297 | 0.0 | 0.0 | 0.00 | 0.00 | 0.00 | 62 | 1015.7 |
| 20260510044601 | 63 | 243 | 0.0 | 0.0 | 0.00 | 0.00 | 0.00 | 62 | 1015.7 |
| 20260510043051 | 63 | 238 | 0.0 | 0.0 | 0.00 | 0.00 | 0.00 | 61 | 1015.5 |
| 20260510041550 | 64 | 190 | 0.0 | 0.0 | 0.00 | 0.00 | 0.00 | 61 | 1015.4 |
| 20260510040051 | 65 | 70 | 0.0 | 0.0 | 0.00 | 0.00 | 0.00 | 58 | 1015.2 |
| 20260510034549 | 66 | 70 | 0.0 | 0.0 | 0.00 | 0.00 | 0.00 | 57 | 1015.0 |
| 20260510033055 | 68 | 68 | 0.0 | 0.0 | 0.00 | 0.00 | 0.00 | 56 | 1014.9 |
| 20260510031548 | 69 | 69 | 0.0 | 0.0 | 0.00 | 0.00 | 0.00 | 51 | 1014.9 |
| 20260510030057 | 72 | 69 | 0.0 | 0.0 | 0.00 | 0.00 | 0.00 | 47 | 1014.8 |
| 20260510024546 | 73 | 69 | 0.0 | 0.0 | 0.00 | 0.00 | 0.00 | 45 | 1014.7 |
| 20260510023049 | 74 | 69 | 0.0 | 0.0 | 0.00 | 0.00 | 0.00 | 44 | 1014.7 |
| 20260510021545 | 74 | 30 | 0.0 | 0.0 | 0.00 | 0.00 | 0.00 | 43 | 1014.8 |
| 20260510020045 | 75 | 359 | 0.0 | 0.0 | 0.00 | 0.00 | 0.00 | 41 | 1014.8 |
| 20260510014544 | 75 | 30 | 0.0 | 0.0 | 0.00 | 0.00 | 0.00 | 38 | 1014.8 |
| 20260510013042 | 76 | 321 | 0.0 | 0.0 | 0.00 | 0.00 | 0.00 | 35 | 1015.1 |
| 20260510011547 | 75 | 351 | 0.0 | 0.0 | 0.00 | 0.00 | 0.00 | 35 | 1015.1 |
| 20260510010040 | 75 | 319 | 0.0 | 0.0 | 0.00 | 0.00 | 0.00 | 35 | 1015.1 |
| 20260510004538 | 75 | 326 | 0.0 | 0.0 | 0.00 | 0.00 | 0.00 | 36 | 1015.2 |
| 20260510003041 | 75 | 359 | 0.0 | 0.0 | 0.00 | 0.00 | 0.00 | 37 | 1015.3 |
| 20260510001537 | 75 | 355 | 0.0 | 0.0 | 0.00 | 0.00 | 0.00 | 39 | 1015.4 |
| 20260510000035 | 76 | 313 | 0.0 | 0.0 | 0.00 | 0.00 | 0.00 | 37 | 1015.6 |
| 20260509234540 | 76 | 214 | 0.0 | 1.0 | 0.00 | 0.00 | 0.00 | 40 | 1015.6 |
| 20260509233036 | 76 | 306 | 0.0 | 0.0 | 0.00 | 0.00 | 0.00 | 40 | 1015.8 |
| 20260509231538 | 75 | 320 | 0.0 | 1.0 | 0.00 | 0.00 | 0.00 | 41 | 1016.0 |
| 20260509230030 | 76 | 277 | 0.0 | 0.0 | 0.00 | 0.00 | 0.00 | 40 | 1016.2 |
| 20260509224528 | 75 | 1 | 0.0 | 0.0 | 0.00 | 0.00 | 0.00 | 43 | 1016.4 |
| 20260509223028 | 75 | 360 | 0.0 | 1.0 | 0.00 | 0.00 | 0.00 | 43 | 1016.7 |
| 20260509221522 | 74 | 1 | 0.0 | 1.0 | 0.00 | 0.00 | 0.00 | 40 | 1016.8 |
| 20260509220026 | 73 | 360 | 0.0 | 0.0 | 0.00 | 0.00 | 0.00 | 45 | 1017.1 |
| 20260509214516 | 73 | 348 | 0.0 | 0.0 | 0.00 | 0.00 | 0.00 | 46 | 1017.4 |
| 20260509213013 | 72 | 256 | 0.0 | 0.0 | 0.00 | 0.00 | 0.00 | 50 | 1017.6 |
| 20260509211510 | 71 | 343 | 0.0 | 0.0 | 0.00 | 0.00 | 0.00 | 49 | 1017.7 |
| 20260509210006 | 70 | 353 | 0.0 | 1.0 | 0.00 | 0.00 | 0.00 | 56 | 1017.7 |
| 20260509204505 | 69 | 325 | 0.0 | 0.0 | 0.00 | 0.00 | 0.00 | 54 | 1018.0 |
| 20260509203009 | 69 | 278 | 0.0 | 0.0 | 0.00 | 0.00 | 0.00 | 54 | 1018.2 |
| 20260509201502 | 68 | 18 | 0.0 | 0.0 | 0.00 | 0.00 | 0.00 | 58 | 1018.3 |
| 20260509200105 | 68 | 325 | 0.0 | 2.0 | 0.00 | 0.00 | 0.00 | 52 | 1018.5 |
| 20260509194556 | 68 | 359 | 0.0 | 0.0 | 0.00 | 0.00 | 0.00 | 55 | 1018.6 |
| 20260509193053 | 68 | 316 | 0.0 | 0.0 | 0.00 | 0.00 | 0.00 | 59 | 1018.8 |
| 20260509191550 | 66 | 14 | 0.0 | 1.0 | 0.00 | 0.00 | 0.00 | 60 | 1018.9 |
| 20260509190047 | 67 | 360 | 0.0 | 1.0 | 0.00 | 0.00 | 0.00 | 59 | 1019.2 |
| 20260509184552 | 65 | 253 | 0.0 | 1.0 | 0.00 | 0.00 | 0.00 | 61 | 1019.2 |
| 20260509183042 | 65 | 331 | 0.0 | 1.0 | 0.00 | 0.00 | 0.00 | 63 | 1019.4 |
| 20260509181550 | 63 | 11 | 0.0 | 9.0 | 0.00 | 0.00 | 0.00 | 64 | 1019.5 |
| 20260509180032 | 62 | 2 | 0.0 | 1.0 | 0.00 | 0.00 | 0.00 | 66 | 1019.5 |
| 20260509174530 | 61 | 291 | 0.0 | 1.0 | 0.00 | 0.00 | 0.00 | 67 | 1019.8 |
| 20260509173027 | 61 | 354 | 0.0 | 0.0 | 0.00 | 0.00 | 0.00 | 67 | 1019.8 |
| 20260509171523 | 59 | 321 | 0.0 | 1.0 | 0.00 | 0.00 | 0.00 | 72 | 1019.9 |
| 20260509170019 | 58 | 321 | 0.0 | 1.0 | 0.00 | 0.00 | 0.00 | 72 | 1020.3 |
| 20260509164520 | 57 | 330 | 0.0 | 1.0 | 0.00 | 0.00 | 0.00 | 73 | 1020.3 |
| 20260509163013 | 56 | 333 | 0.0 | 1.0 | 0.00 | 0.00 | 0.00 | 74 | 1020.7 |
| 20260509161507 | 55 | 360 | 0.0 | 1.0 | 0.00 | 0.00 | 0.00 | 76 | 1020.8 |
| 20260509160005 | 54 | 324 | 0.0 | 1.0 | 0.00 | 0.00 | 0.00 | 77 | 1020.7 |
| 20260509154503 | 54 | 5 | 0.0 | 2.0 | 0.00 | 0.00 | 0.00 | 78 | 1020.8 |
| 20260509153003 | 54 | 348 | 0.0 | 1.0 | 0.00 | 0.00 | 0.00 | 80 | 1021.1 |
| 20260509151600 | 53 | 2 | 0.0 | 1.0 | 0.00 | 0.00 | 0.00 | 81 | 1021.3 |
| 20260509150100 | 53 | 311 | 0.0 | 0.0 | 0.00 | 0.00 | 0.00 | 83 | 1021.4 |
| 20260509144601 | 51 | 359 | 0.0 | 0.0 | 0.00 | 0.00 | 0.00 | 85 | 1021.4 |
| 20260509143059 | 51 | 347 | 0.0 | 0.0 | 0.00 | 0.00 | 0.00 | 86 | 1021.3 |
| 20260509141558 | 50 | 359 | 0.0 | 0.0 | 0.00 | 0.00 | 0.00 | 90 | 1021.2 |
| 20260509140105 | 49 | 359 | 0.0 | 0.0 | 0.00 | 0.00 | 0.00 | 91 | 1021.3 |
| 20260509134603 | 48 | 359 | 0.0 | 0.0 | 0.00 | 0.00 | 0.00 | 90 | 1021.2 |
| 20260509133057 | 47 | 355 | 0.0 | 0.0 | 0.00 | 0.00 | 0.00 | 89 | 1021.1 |
| 20260509131555 | 47 | 355 | 0.0 | 0.0 | 0.00 | 0.00 | 0.00 | 87 | 1021.1 |
| 20260509130055 | 47 | 355 | 0.0 | 0.0 | 0.00 | 0.00 | 0.00 | 86 | 1021.1 |
| 20260509124551 | 48 | 360 | 0.0 | 0.0 | 0.00 | 0.00 | 0.00 | 85 | 1021.3 |
| 20260509123049 | 48 | 360 | 0.0 | 0.0 | 0.00 | 0.00 | 0.00 | 85 | 1021.2 |
| 20260509121546 | 49 | 360 | 0.0 | 0.0 | 0.00 | 0.00 | 0.00 | 85 | 1021.4 |
| 20260509120058 | 49 | 359 | 0.0 | 0.0 | 0.00 | 0.00 | 0.00 | 84 | 1021.5 |
| 20260509114544 | 49 | 359 | 0.0 | 0.0 | 0.00 | 0.00 | 0.00 | 84 | 1021.4 |
| 20260509113043 | 50 | 359 | 0.0 | 0.0 | 0.00 | 0.00 | 0.00 | 84 | 1021.5 |
| 20260509111542 | 50 | 347 | 0.0 | 0.0 | 0.00 | 0.00 | 0.00 | 84 | 1021.4 |
| 20260509110044 | 50 | 359 | 0.0 | 0.0 | 0.00 | 0.00 | 0.00 | 85 | 1021.6 |
| 20260509104539 | 49 | 293 | 0.0 | 0.0 | 0.00 | 0.00 | 0.00 | 84 | 1021.8 |
| 20260509103038 | 49 | 293 | 0.0 | 0.0 | 0.00 | 0.00 | 0.00 | 83 | 1021.8 |
| 20260509101545 | 50 | 293 | 0.0 | 0.0 | 0.00 | 0.00 | 0.00 | 83 | 1021.8 |
| 20260509100041 | 50 | 293 | 0.0 | 0.0 | 0.00 | 0.00 | 0.00 | 82 | 1021.8 |
| 20260509094532 | 50 | 293 | 0.0 | 0.0 | 0.00 | 0.00 | 0.00 | 81 | 1022.0 |
| 20260509093030 | 50 | 293 | 0.0 | 0.0 | 0.00 | 0.00 | 0.00 | 81 | 1022.0 |
| 20260509091533 | 51 | 293 | 0.0 | 0.0 | 0.00 | 0.00 | 0.00 | 80 | 1022.0 |
| 20260509090026 | 51 | 293 | 0.0 | 0.0 | 0.00 | 0.00 | 0.00 | 80 | 1022.1 |
| 20260509084528 | 51 | 293 | 0.0 | 0.0 | 0.00 | 0.00 | 0.00 | 79 | 1022.2 |
| 20260509083021 | 52 | 293 | 0.0 | 0.0 | 0.00 | 0.00 | 0.00 | 78 | 1022.3 |
| 20260509081519 | 52 | 293 | 0.0 | 0.0 | 0.00 | 0.00 | 0.00 | 78 | 1022.5 |